Vorticity
nan nan nan nan nan nan nan nan nan nan nan nan nan nan nan nan nan nan nan nan nan nan nan nan nan nan nan nan nan nan nan nan nan nan nan nan nan nan nan nan nan nan nan nan
nan 5 6 11 10 13 9 5 13 9 -2 4 2 10 16 10 11 9 8 10 7 8 9 7 8 7 5 4 4 5 6 4 3 3 6 7 8 8 8 8 8 9 9 nan
nan 8 12 8 5 7 5 7 10 6 7 8 3 17 -1 12 10 8 7 8 8 9 7 7 7 6 6 6 6 6 6 4 5 4 5 7 7 8 10 8 8 9 8 nan
nan 3 12 5 5 7 6 10 -2 3 13 1 10 17 19 10 6 9 9 7 8 7 8 8 8 6 6 7 8 7 6 6 7 7 3 8 6 7 8 9 7 8 10 nan
nan 10 5 3 7 5 8 10 8 6 5 13 18 5 15 4 13 14 11 9 8 9 9 8 9 8 8 7 7 9 7 7 7 6 5 6 6 6 8 10 11 9 10 nan
nan 12 7 9 7 6 11 9 9 10 11 14 10 8 12 9 13 15 15 11 10 8 9 9 8 9 8 8 8 9 9 8 8 7 8 5 6 5 6 7 9 7 10 nan
nan 5 4 14 12 8 9 6 9 8 11 11 9 17 11 12 12 8 13 17 15 9 8 10 10 8 9 9 7 7 9 8 9 8 8 9 5 7 7 10 8 7 9 nan
nan 7 8 4 6 7 10 4 7 6 6 13 12 4 3 18 7 11 11 10 13 17 16 11 8 9 9 9 9 8 7 8 7 9 9 8 9 7 9 9 8 9 8 nan
nan 12 10 5 8 7 12 6 2 7 9 7 10 12 11 5 9 9 11 15 14 16 18 17 11 9 9 10 9 9 9 9 8 7 10 9 10 9 11 10 3 7 8 nan
nan 11 13 12 6 9 8 13 9 11 7 8 9 11 14 7 9 10 7 9 14 13 17 19 18 12 9 10 10 10 8 8 9 9 9 11 12 10 9 12 12 7 9 nan
nan 12 11 7 9 5 6 5 5 3 6 13 7 6 6 11 7 2 4 5 5 9 15 15 15 18 16 10 10 11 10 10 10 11 8 10 9 10 9 9 12 12 14 nan
nan 9 8 7 12 8 8 10 3 -0 7 4 6 6 12 15 6 7 6 5 6 6 8 11 13 15 15 15 14 11 11 11 12 12 12 13 10 9 14 14 12 12 15 nan
nan 5 10 8 5 11 8 9 10 3 9 10 5 2 5 11 11 8 7 11 8 8 7 7 11 11 13 15 15 13 14 16 17 15 13 11 14 11 11 14 14 14 12 nan
nan 5 6 4 4 9 8 9 8 3 6 5 3 5 4 10 8 5 15 11 10 12 8 8 8 11 12 12 14 11 9 13 16 16 13 10 11 13 11 10 10 10 11 nan
nan 7 6 3 5 9 13 10 6 7 4 3 3 6 6 10 11 7 12 16 13 11 12 14 10 11 11 7 9 12 11 11 11 10 9 9 10 12 11 12 11 10 11 nan
nan 11 11 9 8 5 5 10 12 11 6 7 9 8 6 6 9 12 7 9 11 9 12 15 16 11 10 10 8 8 9 10 10 10 10 10 10 11 11 11 11 11 11 nan
nan 9 13 16 17 11 11 9 9 8 6 11 10 8 8 8 13 11 11 11 12 11 12 13 14 12 10 12 10 10 10 10 10 10 11 11 10 10 10 9 9 11 9 nan
nan 9 7 9 15 14 12 19 14 8 8 11 10 4 6 14 15 15 19 15 12 11 11 10 11 12 12 12 12 11 10 10 9 9 10 10 9 9 10 8 7 7 8 nan
nan 11 9 12 6 6 10 11 14 10 13 10 8 13 13 19 13 9 13 17 15 11 9 10 11 11 10 9 9 10 10 10 10 10 9 9 8 8 8 8 7 6 7 nan
nan 12 8 11 13 10 12 10 10 10 12 12 14 12 17 13 0 22 23 9 10 10 10 11 10 9 10 10 9 10 10 9 9 9 9 9 9 7 7 9 11 10 8 nan
nan 16 15 4 8 15 20 21 13 9 4 12 15 12 16 8 14 25 17 10 9 9 10 9 9 9 10 10 9 9 9 9 9 8 8 8 11 10 7 7 10 11 10 nan
nan 6 10 12 12 10 13 18 10 4 6 12 9 10 17 16 19 13 10 9 9 10 8 7 9 10 10 10 9 9 9 9 7 8 9 8 7 10 11 10 9 8 7 nan
nan 9 9 8 6 16 10 3 1 0 15 13 11 18 18 12 9 9 9 9 8 8 7 9 10 9 9 10 11 9 8 10 9 8 8 9 8 8 9 9 9 10 9 nan
nan 6 10 7 5 6 6 5 4 10 12 9 15 17 17 11 10 10 8 9 9 9 9 10 10 8 8 9 11 10 9 9 9 9 7 7 8 8 10 10 9 10 12 nan
nan 8 7 8 8 13 9 8 14 11 9 10 12 15 16 13 11 9 9 8 9 10 9 9 9 10 10 9 9 9 9 9 8 8 7 8 9 10 9 6 11 13 11 nan
nan nan nan nan nan nan nan nan nan nan nan nan nan nan nan nan nan nan nan nan nan nan nan nan nan nan nan nan nan nan nan nan nan nan nan nan nan nan nan nan nan nan nan nan
CAPE
0 0 0 35 46 4 18 50 46 70 38 23 48 124 77 633 544 718 626 622 611 659 434 326 215 89 72 69 48 26 12 14 149 163 63 23 32 41 54 209 384 579 656 581
3 0 1 4 0 0 17 69 40 51 15 22 27 100 5 100 575 576 716 423 588 715 580 297 309 156 90 63 61 59 9 18 235 290 212 5 0 1 26 80 412 599 640 475
1 5 1 0 0 0 26 59 47 51 58 23 17 56 39 14 302 609 740 527 286 556 664 567 333 411 234 168 176 246 277 242 298 291 238 26 5 26 78 123 332 700 656 344
0 2 0 0 1 10 51 24 2 16 19 48 34 43 33 22 99 396 611 902 578 374 536 822 844 784 735 494 345 314 378 416 487 497 388 188 23 2 50 154 246 377 348 190
0 0 0 0 4 12 30 5 0 11 84 114 140 38 55 29 1 59 394 854 777 489 414 560 889 1006 937 863 709 721 490 486 589 633 622 513 248 61 87 161 345 402 485 233
0 0 0 0 1 0 7 0 5 17 95 165 39 109 37 20 5 25 32 216 657 638 431 407 663 924 937 966 1211 960 780 655 718 816 862 894 672 549 149 257 617 619 394 103
0 1 0 0 0 0 1 17 86 145 114 147 100 34 36 60 7 0 3 26 243 547 746 635 473 801 969 971 1141 1214 1126 851 824 953 1012 1062 1018 997 879 545 532 393 362 35
0 2 0 0 0 37 24 44 174 117 170 10 24 11 39 12 0 0 25 77 115 178 490 798 829 572 899 1181 1220 1350 1278 1248 1081 1427 1356 1482 1455 1307 1270 493 169 254 202 137
1 1 2 2 0 5 74 67 93 124 99 70 91 66 23 0 0 0 7 33 159 175 157 542 852 987 790 1110 1562 1895 1451 1329 1331 1694 1809 1866 1802 1586 1458 899 500 72 205 0
2 36 0 0 0 0 33 75 85 83 108 150 97 111 98 1 40 0 0 2 10 125 209 429 770 1090 1222 1273 1777 2067 1825 1626 1538 1555 1654 1574 1412 1098 983 774 345 158 21 0
8 19 15 18 0 10 10 93 73 102 120 187 149 145 52 7 0 0 0 0 2 50 267 391 440 692 1068 1336 1637 1825 1873 1854 1774 1772 1687 1520 903 478 305 291 79 47 7 4
1 5 85 3 1 0 28 37 82 111 95 77 156 169 69 23 14 0 0 1 13 121 180 374 458 522 617 1021 1330 1634 1704 1794 1762 1746 1682 982 587 385 165 98 42 0 0 0
0 7 33 43 25 2 9 63 98 103 82 59 275 105 31 24 6 0 0 1 35 102 171 265 471 627 751 897 1055 1224 1324 1278 1190 1227 1207 571 314 117 0 0 0 0 0 0
9 5 11 27 14 10 3 11 44 73 170 37 27 37 96 45 46 53 31 10 4 22 61 284 479 753 1002 1118 1161 1222 1189 961 808 455 41 1 1 0 0 1 0 0 0 2
1 10 4 4 27 29 18 16 21 41 43 58 24 42 54 47 50 106 77 41 13 52 7 22 628 816 1131 1320 950 365 12 1 1 1 2 4 4 3 4 8 4 4 2 3
5 29 9 17 12 20 13 5 12 9 11 5 7 15 53 41 24 11 10 1 97 194 173 212 475 1086 1233 1232 490 3 3 2 2 3 4 5 8 4 5 5 1 1 2 0
66 103 51 26 16 28 52 0 5 5 10 10 15 16 42 77 54 10 0 59 129 155 193 303 608 816 633 383 82 10 4 2 0 1 2 2 3 3 6 6 5 4 2 0
68 77 156 83 10 64 0 1 1 4 0 7 8 7 25 33 11 6 0 47 62 32 55 125 154 92 52 18 7 6 5 4 2 2 3 4 3 1 1 2 2 0 0 0
153 156 222 138 77 0 0 0 0 3 0 11 17 9 36 27 0 0 0 2 0 0 0 0 0 0 0 0 0 0 0 0 0 0 0 0 2 3 2 0 0 3 0 2
78 221 287 100 45 43 0 0 2 25 39 14 35 31 13 0 0 0 0 0 0 0 0 0 0 0 0 0 0 0 0 0 0 1 1 4 4 5 6 1 0 2 11 3
94 142 178 118 84 2 0 2 23 82 170 49 26 23 0 0 0 0 0 0 0 0 0 0 0 0 0 0 0 0 0 1 1 2 3 3 0 0 4 1 0 0 0 0
92 111 171 134 188 77 0 2 52 205 162 87 64 9 2 0 0 0 0 0 0 0 0 0 0 0 0 0 0 0 1 1 1 0 0 0 0 0 0 0 0 0 0 0
94 163 165 139 110 104 3 108 58 137 218 188 119 26 10 0 0 0 0 0 0 0 0 0 0 0 0 0 1 0 0 0 0 0 0 0 0 0 0 0 0 0 0 0
112 135 164 180 148 117 94 86 53 104 115 117 60 36 1 0 0 0 0 0 0 0 0 0 0 0 0 0 0 0 0 0 0 0 0 0 0 0 0 0 0 0 0 0
9 15 30 36 22 20 100 85 100 98 62 12 0 0 0 0 0 0 0 0 0 0 0 0 0 0 0 0 0 0 0 0 0 0 0 0 0 0 0 0 0 0 0 0
0 0 114 86 40 175 114 140 201 179 99 0 0 0 0 0 0 0 0 0 0 0 0 0 0 0 0 0 0 0 0 0 0 0 0 0 0 0 0 0 0 0 0 0